Regional Weather Roundup
Issued by NWS Lake Charles, LA

Home | Current Version | Previous Version | Text Only | Print | Product List | Glossary On
Versions: 1 2 3 4 5 6 7 8 9 10 11 12 13 14 15 16 17 18 19 20 21 22 23 24 25 26 27 28 29 30 31 32 33 34 35 36 37 38 39 40 41 42 43 44 45 46 47 48 49 50
000
ASUS44 KLCH 010910
RWRLCH
RWRLCH
REGIONAL WEATHER ROUNDUP
NATIONAL WEATHER SERVICE LAKE CHARLES LA
300 AM CST SUN MAR 01 2015

Note: "fair" indicates few or no clouds below 12,000 feet with no
significant weather and/or obstructions to visibility.


ACROSS SOUTHEAST TEXAS

CITY           SKY/WX    TMP DP  RH WIND       PRES   REMARKS
BEAUMONT       CLOUDY    58  54  86 E15       30.20F
BEAUMONT CITY  CLOUDY    58  55  91 SE10      30.20F
ORANGE         CLOUDY    58  55  90 E5        30.22F
JASPER         LGT RAIN  55  46  70 E3        30.24F
$$

ACROSS CENTRAL LOUISIANA

CITY           SKY/WX    TMP DP  RH WIND       PRES   REMARKS
LEESVILLE      CLOUDY    54  49  81 SE7       30.22S
FULLERTON      CLOUDY    56  47  71 CALM      30.20F
ALEXANDRIA INT CLOUDY    52  44  74 E5        30.23F
ESLER FIELD    CLOUDY    50  40  68 CALM      30.25F
DERIDDER       CLOUDY    55  47  74 CALM      30.24S
OAKDALE        CLOUDY    54  50  87 CALM      30.24S
OPELOUSAS      CLOUDY    56  52  87 SE9       30.23F
$$

ACROSS SOUTHWEST AND SOUTH CENTRAL LOUISIANA

CITY           SKY/WX    TMP DP  RH WIND       PRES   REMARKS
SULPHUR        RAIN      59  56  91 E9        30.22S
LAKE CHARLES   CLOUDY    57  54  89 E12       30.21F
CHENNAULT INT  CLOUDY    56  53  90 E5        30.22F
CAMERON PHI    CLOUDY    55  54  94 SE17G26   30.22F FOG
DEQUINCY       NOT AVBL
JENNINGS       CLOUDY    56  53  91 SE8       30.22F
LAFAYETTE      CLOUDY    57  54  89 VRB6      30.24F
NEW IBERIA     CLOUDY    56  54  93 E10       30.25S
ABBEVILLE      CLOUDY    56  55  94 E12G18    30.23F
PATTERSON      CLOUDY    57  55  94 E9        30.27R
SALT POINT       N/A     59  57  93 VRB7      30.23S
$$

SELECTED SITES ACROSS THE REGION

CITY           SKY/WX    TMP DP  RH WIND       PRES   REMARKS
HOUSTON BUSH   DRZL/FOG  53  53 100 NE5       30.19F VSB 1
HOUSTON HOBBY  DRZL/FOG  57  57 100 E7        30.17F VSB 3/4
GALVESTON      LGT RAIN  59  59 100 E15       30.17F FOG
COLLEGE STAT   CLOUDY    40  39  97 N8        30.24F FOG
CONROE         CLOUDY    49  46  90 N5        30.21F
HUNTSVILLE     CLOUDY    45  44  97 NE3       30.22F FOG
LUFKIN         LGT RAIN  48  43  82 NW3       30.24S
SHREVEPORT     LGT RAIN  42  39  89 N9        30.28R
MONROE         CLOUDY    44  39  82 NE7       30.28F
NATCHEZ MS     CLOUDY    54  48  82 SE9       30.27F
BATON ROUGE    CLOUDY    56  54  93 E14       30.26F
N.O. INTL ARPT CLOUDY    57  55  93 E10       30.27F FOG
SLIDELL        CLOUDY    55  53  93 E9        30.29F
$$

MARINE REPORTS

STATION/POSITION TIME  TEMP    WIND        PRES    VSBY  WAVE
                       AIR SEA DIR/SP/G                  HT/PER
                 (UTC) (F)     (DEG/KT/KT) (MB)    (MI)  (FT/S)
BUOY 30 S HIGH I 0900   59 56   90/ 12/ 14 1021.0F         5/ 6
SEA RIM ST PARK  0900   55      90/  8/ 10 1022.9F
PORT ARTHUR      0900      51   80/  4/  5 1023.0F
SABINE PASS N    0900   56 52  110/ 10/ 14 1022.5F
TEXAS POINT      NOT AVBL
CALCASIEU PASS   0900   55 53  130/ 21/ 26   N/A
LK CHARLES BEACH 0900   57 54              1023.2S
MARSH ISLAND     NOT AVBL
FRESH WATER LOCK 0900   55 52   80/ 11/ 16 1023.1F
AMERADA PASS     0900   58 48   90/ 10/ 15 1024.0R
$$


USA.gov is the U.S. government's official web portal to all federal, state and local government web resources and services.